RH
18 29 46 56 38 16 5 5 7 10 9 9 7 6 7 9 10 9 10 25 22 13 14 16 12 9 9 8 7 6 5 5
29 52 67 54 20 7 5 7 11 10 10 8 7 9 11 11 10 18 28 18 15 18 13 9 9 8 7 7 8 10 11 12
70 80 84 38 12 6 7 11 12 11 9 8 11 13 13 13 27 28 18 19 16 10 10 8 7 8 9 9 10 11 10 10
69 83 66 20 7 9 12 13 12 10 8 12 14 14 14 31 28 20 20 12 10 10 8 8 10 11 12 12 11 9 9 11
98 41 25 8 26 16 14 13 11 9 13 15 14 17 36 31 23 20 10 11 11 10 12 13 13 13 10 9 13 24 32 34
61 18 14 62 14 16 14 11 9 13 16 16 21 38 34 25 20 11 11 12 14 16 16 16 12 12 18 30 43 50 51 47
20 38 52 14 17 15 12 9 14 16 16 25 39 38 30 21 12 12 14 16 18 18 13 14 20 31 45 58 61 72 85 90
66 34 14 18 16 12 9 14 16 18 29 40 40 30 20 12 13 14 17 19 17 13 19 33 46 69 84 94 98 92 93 98
15 13 16 16 11 10 15 16 19 33 42 39 32 19 14 14 15 17 19 16 14 23 38 62 77 93 95 100 100 100 100 100
12 13 15 11 10 16 17 20 35 40 37 33 21 16 17 17 18 19 16 16 28 56 65 89 67 95 87 94 89 98 100 100
10 13 10 11 15 16 23 35 34 38 37 24 18 19 19 19 19 15 15 34 66 72 96 81 100 70 75 88 97 100 82 71
10 10 12 14 18 25 30 31 37 37 31 21 22 25 27 20 15 13 30 67 76 74 79 97 76 99 95 100 100 100 33 60
10 12 13 21 27 23 27 34 35 36 24 25 28 32 29 16 12 25 63 73 63 100 100 89 96 100 38 34 39 22 18 15
11 13 26 30 20 24 29 34 38 30 28 28 33 38 21 13 24 63 75 57 67 91 99 100 100 85 81 57 38 19 22 12
14 30 30 17 22 23 26 35 37 35 33 30 39 28 15 20 54 66 78 80 96 88 100 100 55 36 47 44 47 44 30 22
32 30 18 19 16 16 22 38 40 42 35 36 44 21 17 36 72 84 84 100 72 69 97 100 100 32 62 48 42 45 89 99
29 16 16 13 12 12 19 38 38 45 43 47 32 16 25 58 73 74 76 89 100 91 95 100 100 37 98 64 37 38 80 99
13 14 11 12 10 7 13 26 28 43 46 48 22 16 40 78 69 90 54 97 99 53 52 99 26 61 62 100 70 32 88 100
11 10 11 10 7 6 7 19 25 34 44 34 17 19 52 85 88 65 31 100 53 24 40 98 56 80 32 51 100 29 27 30
Wind_Speed
41 39 37 37 36 32 30 32 34 36 37 40 42 44 46 48 47 45 43 42 43 45 46 48 50 51 54 56 58 60 61 60
37 36 37 36 32 29 29 31 34 36 38 41 44 46 48 47 44 42 42 44 45 48 50 51 54 56 57 57 57 56 56 57
33 35 36 33 28 27 28 32 34 37 40 42 44 46 46 43 42 42 44 46 48 50 52 54 54 55 56 57 57 57 56 54
35 36 33 28 24 26 29 32 34 38 40 43 44 44 41 42 43 45 47 48 51 53 53 54 55 56 57 57 54 49 44 44
35 31 25 20 22 27 30 32 35 37 41 43 41 40 40 42 44 46 48 51 53 54 54 56 57 56 51 44 40 39 35 35
26 20 16 19 23 27 29 32 35 39 40 39 39 39 42 44 45 47 50 52 53 53 55 56 48 41 39 36 37 40 42 41
17 13 16 20 23 26 29 33 37 38 37 36 38 41 42 44 45 48 51 51 52 54 50 40 38 36 39 39 36 32 33 34
10 12 16 19 23 27 30 35 35 35 35 37 40 41 42 43 46 49 49 51 53 42 37 35 38 36 30 33 35 33 32 30
9 12 16 20 24 28 32 32 32 34 36 39 40 40 41 44 46 49 50 50 38 34 35 35 30 33 34 35 35 37 34 28
9 13 17 21 25 29 29 31 32 35 37 37 37 39 41 44 47 49 48 35 33 34 28 29 31 30 28 27 25 25 24 29
10 15 19 22 25 27 29 31 32 34 34 35 37 39 41 45 48 45 32 32 30 29 28 30 33 23 24 17 17 17 23 20
12 15 19 22 24 27 29 30 32 32 33 34 34 38 44 49 45 30 30 27 31 31 25 26 28 29 40 20 22 12 31 16
12 16 19 22 25 26 28 30 30 31 31 32 36 42 46 46 32 31 28 27 31 30 35 26 28 35 38 37 28 26 23 17
13 15 19 22 24 26 28 30 30 30 32 33 38 44 47 35 29 30 25 29 28 34 35 36 35 34 44 42 40 40 40 42
12 16 19 20 24 27 30 31 30 32 33 34 39 44 40 29 30 26 27 31 36 30 33 41 41 45 45 48 47 50 58 62
12 15 17 22 26 30 32 32 32 33 32 36 40 44 32 30 26 25 29 35 34 34 39 50 46 52 50 60 56 56 58 65
12 14 20 23 28 32 35 33 34 32 34 37 42 38 30 29 27 34 31 35 36 45 45 47 48 48 46 59 58 56 65 66
11 16 21 26 29 34 35 36 34 34 36 38 41 33 30 30 30 36 31 35 39 37 42 47 46 46 51 48 52 48 46 59
13 18 22 26 31 35 37 35 34 35 36 40 40 32 29 32 33 34 29 42 39 40 40 49 57 52 49 51 51 49 50 57
Wind_Direction
297 298 298 298 297 297 296 297 298 301 306 307 306 304 306 306 304 302 303 302 302 300 299 298 297 295 294 292 290 286 282 278
294 294 294 294 297 296 295 300 302 306 309 308 308 308 309 307 306 307 307 306 304 303 303 303 300 298 296 295 293 289 285 281
292 290 293 294 295 294 301 303 307 309 309 308 308 310 308 309 309 308 308 308 308 307 305 303 301 300 298 296 292 289 285 281
286 291 290 293 296 303 304 307 309 309 309 310 310 310 311 313 313 313 313 312 311 308 305 305 304 303 301 298 294 289 282 278
285 291 289 298 304 303 307 310 311 310 310 311 313 316 317 316 316 317 316 314 311 311 311 309 308 306 302 298 293 290 285 277
283 286 298 305 304 306 310 313 312 312 314 315 320 320 320 320 320 320 318 317 318 316 315 313 311 307 304 302 297 292 287 280
282 294 307 304 307 311 315 314 315 317 319 323 324 323 323 324 323 322 322 323 322 321 319 318 317 314 309 302 296 291 284 279
286 303 306 310 314 318 317 319 320 322 326 327 326 326 326 325 326 326 327 327 328 327 326 325 318 315 312 311 302 293 284 281
306 315 316 319 322 321 323 321 326 329 331 330 330 330 328 330 329 330 331 334 335 334 330 327 328 323 324 318 312 301 288 273
332 327 326 325 326 327 326 332 334 334 332 332 332 332 336 333 335 337 340 342 345 341 339 341 340 343 333 329 334 331 308 288
344 337 332 332 330 333 336 338 334 334 336 337 337 341 340 342 345 344 350 356 356 352 350 351 357 351 352 359 351 342 336 305
347 341 337 338 340 342 341 336 337 340 342 341 345 345 346 350 349 357 5 7 7 6 6 9 7 355 6 332 345 340 353 334
354 348 346 348 349 343 341 340 344 346 347 351 349 349 351 354 2 8 13 20 16 7 17 31 10 23 27 28 22 3 22 54
3 359 356 353 349 351 346 348 353 355 359 355 355 355 356 4 15 20 33 32 23 22 33 37 40 31 43 38 47 58 65 74
16 7 359 356 1 1 357 358 3 4 3 359 359 1 6 23 29 48 44 43 40 42 33 24 57 56 57 57 60 69 77 80
21 10 6 14 15 9 4 6 11 11 6 7 6 6 24 31 42 50 55 54 43 36 34 57 56 61 71 68 65 73 83 88
29 17 27 23 19 14 9 15 18 14 14 13 13 17 35 35 61 60 54 47 56 54 53 58 59 61 59 71 69 78 89 90
40 38 33 27 23 20 13 21 24 19 19 20 20 36 43 55 64 59 48 52 68 62 71 62 70 72 75 70 76 78 81 82
56 47 37 31 29 27 19 27 30 25 28 28 30 49 52 62 65 59 48 66 69 79 76 77 71 65 75 79 81 83 79 84